| time (UTC) | temp C | wind direction | speed KPH | gust KPH | rain 1hr cm | rain 24hr cm | rain mn cm | humidity % | barometer mb |
| 20260503213046 | 13 | 236 | 8.0 | 22.5 | 0.00 | 0.00 | 0.00 | 38 | 1012.5 |
| 20260503211545 | 13 | 319 | 12.9 | 30.6 | 0.00 | 0.00 | 0.00 | 38 | 1012.3 |
| 20260503210043 | 13 | 232 | 9.7 | 29.0 | 0.00 | 0.00 | 0.00 | 39 | 1012.4 |
| 20260503204544 | 13 | 254 | 8.0 | 25.7 | 0.00 | 0.00 | 0.00 | 38 | 1012.4 |
| 20260503203042 | 13 | 282 | 6.4 | 19.3 | 0.00 | 0.00 | 0.00 | 39 | 1012.6 |
| 20260503201544 | 13 | 311 | 9.7 | 22.5 | 0.00 | 0.00 | 0.00 | 38 | 1012.8 |
| 20260503200047 | 13 | 332 | 9.7 | 25.7 | 0.00 | 0.00 | 0.00 | 39 | 1012.8 |
| 20260503194549 | 13 | 276 | 9.7 | 29.0 | 0.00 | 0.00 | 0.00 | 37 | 1012.9 |
| 20260503193046 | 13 | 286 | 8.0 | 22.5 | 0.00 | 0.00 | 0.00 | 38 | 1013.1 |
| 20260503191544 | 12 | 216 | 6.4 | 25.7 | 0.00 | 0.00 | 0.00 | 42 | 1013.2 |
| 20260503190050 | 13 | 249 | 8.0 | 22.5 | 0.00 | 0.00 | 0.00 | 38 | 1013.3 |
| 20260503184555 | 12 | 259 | 9.7 | 25.7 | 0.00 | 0.00 | 0.00 | 42 | 1013.4 |
| 20260503183044 | 12 | 331 | 8.0 | 30.6 | 0.00 | 0.00 | 0.00 | 42 | 1013.7 |
| 20260503181544 | 12 | 313 | 8.0 | 30.6 | 0.00 | 0.00 | 0.00 | 39 | 1013.7 |
| 20260503180053 | 12 | 0 | 12.9 | 29.0 | 0.00 | 0.00 | 0.00 | 41 | 1013.7 |
| 20260503174602 | 11 | 267 | 11.3 | 33.8 | 0.00 | 0.00 | 0.00 | 42 | 1013.9 |
| 20260503173048 | 11 | 302 | 9.7 | 25.7 | 0.00 | 0.00 | 0.00 | 42 | 1014.0 |
| 20260503171540 | 11 | 223 | 4.8 | 20.9 | 0.00 | 0.00 | 0.00 | 42 | 1014.0 |
| 20260503081549 | 2 | 286 | 4.8 | 14.5 | 0.00 | 0.00 | 0.00 | 70 | 1013.8 |
| 20260503071543 | 2 | 327 | 3.2 | 12.9 | 0.00 | 0.03 | 0.00 | 68 | 1013.8 |
| 20260503054545 | 3 | 0 | 1.6 | 12.9 | 0.00 | 0.08 | 0.00 | 65 | 1013.9 |
| 20260503053043 | 3 | 325 | 3.2 | 12.9 | 0.00 | 0.08 | 0.00 | 64 | 1013.9 |
| 20260503051543 | 4 | 0 | 1.6 | 8.0 | 0.00 | 0.08 | 0.00 | 64 | 1013.9 |
| 20260503050049 | 4 | 349 | 0.0 | 11.3 | 0.00 | 0.08 | 0.00 | 64 | 1014.0 |
| 20260503044552 | 4 | 321 | 0.0 | 9.7 | 0.00 | 0.20 | 0.00 | 63 | 1014.0 |
| 20260503043045 | 4 | 0 | 0.0 | 4.8 | 0.00 | 0.20 | 0.00 | 63 | 1014.0 |
| 20260503041545 | 4 | 0 | 0.0 | 4.8 | 0.00 | 0.20 | 0.00 | 63 | 1014.0 |
| 20260503040047 | 5 | 0 | 0.0 | 4.8 | 0.00 | 0.20 | 0.00 | 62 | 1014.1 |
| 20260503034603 | 5 | 0 | 0.0 | 12.9 | 0.00 | 0.33 | 0.20 | 62 | 1014.2 |
| 20260503033052 | 5 | 0 | 0.0 | 8.0 | 0.00 | 0.33 | 0.20 | 63 | 1014.3 |
| 20260503031552 | 5 | 324 | 3.2 | 9.7 | 0.00 | 0.33 | 0.20 | 63 | 1014.4 |
| 20260503030046 | 5 | 321 | 3.2 | 16.1 | 0.00 | 0.33 | 0.20 | 64 | 1014.4 |
| 20260503024550 | 5 | 317 | 3.2 | 12.9 | 0.00 | 0.36 | 0.20 | 65 | 1014.4 |
| 20260503023041 | 5 | 302 | 3.2 | 11.3 | 0.00 | 0.36 | 0.20 | 65 | 1014.4 |
| 20260503021542 | 5 | 323 | 0.0 | 6.4 | 0.00 | 0.36 | 0.20 | 67 | 1014.5 |
| 20260503020041 | 5 | 316 | 1.6 | 14.5 | 0.00 | 0.36 | 0.20 | 67 | 1014.4 |
| 20260503014555 | 5 | 304 | 0.0 | 11.3 | 0.00 | 0.36 | 0.20 | 70 | 1014.2 |
| 20260503013045 | 5 | 280 | 0.0 | 8.0 | 0.00 | 0.36 | 0.20 | 71 | 1014.2 |
| 20260503011546 | 5 | 0 | 3.2 | 11.3 | 0.00 | 0.36 | 0.20 | 71 | 1014.2 |
| 20260503010045 | 5 | 271 | 0.0 | 11.3 | 0.00 | 0.36 | 0.20 | 72 | 1014.0 |
| 20260503004542 | 5 | 0 | 3.2 | 16.1 | 0.00 | 0.43 | 0.20 | 72 | 1013.9 |
| 20260503003050 | 6 | 269 | 3.2 | 14.5 | 0.00 | 0.43 | 0.20 | 72 | 1013.7 |
| 20260503001605 | 6 | 259 | 3.2 | 12.9 | 0.00 | 0.43 | 0.20 | 71 | 1013.7 |
| 20260503000050 | 6 | 0 | 3.2 | 14.5 | 0.00 | 0.43 | 0.20 | 69 | 1013.7 |
| 20260502234548 | 6 | 265 | 3.2 | 12.9 | 0.00 | 0.43 | 0.20 | 70 | 1013.6 |
| 20260502233043 | 6 | 322 | 0.0 | 11.3 | 0.00 | 0.43 | 0.20 | 69 | 1013.5 |
| 20260502231541 | 6 | 288 | 3.2 | 9.7 | 0.00 | 0.43 | 0.20 | 68 | 1013.5 |
| 20260502230047 | 6 | 319 | 3.2 | 17.7 | 0.00 | 0.43 | 0.20 | 69 | 1013.4 |
| 20260502224546 | 6 | 252 | 4.8 | 16.1 | 0.00 | 0.43 | 0.20 | 70 | 1013.4 |
| 20260502223042 | 6 | 0 | 0.0 | 9.7 | 0.00 | 0.43 | 0.20 | 69 | 1013.3 |
| 20260502221546 | 6 | 319 | 0.0 | 8.0 | 0.00 | 0.43 | 0.20 | 69 | 1013.2 |
| 20260502220051 | 6 | 10 | 3.2 | 12.9 | 0.00 | 0.43 | 0.20 | 70 | 1013.2 |
| 20260502214548 | 6 | 326 | 1.6 | 8.0 | 0.00 | 0.48 | 0.20 | 72 | 1013.4 |